Location: Bettgenhausen
(50.6463°N, 7.5681°E)
Time: 20:01:08
(UTC+00:00)

STARLINK-68 - Pass Details

Date: 27 February 2020
Orbit: 529 x 530 km, 53.0° (Epoch: 30 March)

Event Time Altitude Azimuth Distance (km) Brightness Sun altitude
Rises 19:26:30 0° 286° (WNW) 2,670 8.6 -22.8°
Reaches altitude 10° 19:28:43 10° 288° (WNW) 1,779 7.3 -23.1°
Enters shadow 19:32:25 68° 330° (NNW) 573 3.7 -23.7°
